User: anonymous   Login
Location: Caltech
(34.1382°N, 118.1253°W)
Time: 00:31:55
(UTC-07:00)
Language:

Cosmos 1975 - Orbit

View from above orbital plane
View from above orbital plane
View from above satellite
View from above satellite

Ground track
Ground track

The orbit data is extracted from the following two-line orbital elements,

1 19573U 88093A   17112.92245536 +.00001145 +00000-0 +80345-4 0  9996
2 19573 082.5226 038.9480 0015830 122.8751 237.4001 15.04118316530361
Epoch (UTC): 22 April 2017 22:08:20
Eccentricity: 0.0015830
inclination: 82.5226°
perigee height: 543 km
apogee height: 565 km
right ascension of ascending node: 38.9480°
argument of perigee: 122.8751°
revolutions per day: 15.04118316
mean anomaly at epoch: 237.4001°
orbit number at epoch: 53036

The dashed part of the orbit path shows where the satellite is in the earth's shadow,  

DLR